カタログに戻る

PEGASUS DEB

運用中PO
NORAD 39922·DEBRIS·🇺🇸 United States

打ち上げ May 19, 1994 から Vandenberg Space Force Base

Loading…

次のパス (今後24時間)

TLE

経年Source: Space-Track

元期: Sep 10, 2026, 06:25 UTC

1 39922U 94029AFV 26253.26739611  .00007383  00000-0  60479-3 0  9992
2 39922  81.5812 243.1854 0105909  55.0290 306.0816 14.94784888657513

AllMySatでPEGASUS DEBをリアルタイム追跡

Download on the App Store